GFSMA_prec_cthk_015.txt.gz
RH
55 58 59 49 48 47 45 43 46 46 41 38 36 34 30 32 33 30 28 29 33 37 48 59 66 73 68 66 63 57 53 45 42 40 45 47 51 56 59 63 62 64 68
52 51 54 52 52 48 58 55 49 49 44 39 35 31 31 34 32 31 27 28 37 40 39 52 58 61 73 66 60 63 70 60 53 46 39 44 46 58 59 56 55 59 60
49 49 51 56 58 51 62 50 53 47 43 37 33 30 29 30 34 28 27 31 33 37 39 42 51 56 55 64 67 65 66 68 69 58 47 44 46 47 53 56 58 58 57
49 48 51 49 59 53 46 43 47 45 42 34 21 29 29 33 34 34 36 31 32 33 35 41 42 50 54 55 63 77 77 69 70 71 64 59 57 53 50 53 59 60 62
60 47 42 43 45 53 44 40 39 41 35 27 21 30 29 33 37 43 34 42 39 34 35 38 39 37 43 59 67 66 73 73 72 80 71 70 67 65 61 57 54 55 58
48 42 44 41 44 45 39 37 32 29 22 18 26 26 29 33 37 35 43 34 35 36 38 35 42 46 42 47 56 58 59 65 72 74 81 85 84 79 73 68 61 55 59
43 43 40 38 40 38 28 26 26 17 20 23 30 32 32 42 39 38 39 40 32 31 34 29 31 41 45 47 50 47 42 58 61 66 72 79 83 88 86 80 73 66 58
38 37 34 31 29 32 28 23 18 15 24 26 25 27 38 44 44 43 39 38 33 28 26 30 31 29 33 34 38 37 36 37 40 45 53 59 61 66 70 77 84 82 73
33 30 31 28 26 29 29 27 19 19 26 28 28 28 36 39 44 40 44 41 37 35 32 24 26 26 27 28 28 28 27 27 31 35 37 39 42 44 48 57 67 72 82
32 31 25 23 25 32 35 27 29 27 33 34 30 29 30 39 40 43 42 37 43 36 37 34 33 33 29 28 28 27 25 24 24 25 27 29 31 34 37 38 40 46 66
35 29 23 26 35 39 40 44 45 44 47 42 41 33 29 27 36 39 41 41 43 44 41 37 37 37 33 32 30 30 28 27 27 24 22 21 22 23 26 29 31 34 36
32 29 38 45 46 47 47 51 56 58 55 54 51 48 34 30 31 31 33 36 36 43 44 44 45 43 41 39 39 35 33 29 27 24 22 21 21 21 21 21 21 22 24
32 41 44 45 46 47 50 53 59 57 58 56 54 52 52 42 38 35 36 38 40 40 44 47 48 46 45 42 39 36 32 28 29 26 25 23 21 21 20 20 20 20 20
41 47 45 47 47 50 47 52 52 55 52 54 54 53 54 55 49 50 51 46 41 43 44 46 49 51 46 43 40 36 37 36 33 30 27 26 22 23 23 23 22 21 20
45 45 44 48 51 50 45 45 49 52 51 50 47 48 53 55 55 58 57 57 56 56 49 47 48 48 48 44 43 42 43 40 36 31 27 27 26 27 27 27 28 29 28
45 44 44 48 49 54 53 48 50 54 56 56 51 46 48 54 55 58 61 62 64 63 64 59 52 48 50 49 51 48 45 44 41 39 35 30 32 32 32 31 30 29 30
43 46 46 49 48 51 53 48 47 52 54 54 55 54 54 55 54 58 66 69 70 71 68 67 64 61 56 49 42 39 42 46 45 44 42 40 38 40 40 40 38 36 35
43 44 48 48 52 51 51 50 45 47 51 52 54 56 58 57 55 51 62 71 78 75 73 72 75 72 73 73 70 59 52 49 50 48 44 47 46 43 44 45 43 42 41
36 41 43 47 50 52 55 59 54 47 50 52 55 54 57 56 61 53 61 66 67 71 74 76 74 76 77 76 78 77 64 58 59 60 59 55 51 45 42 43 43 44 43
36 41 44 48 51 53 57 62 59 51 49 50 54 55 60 61 66 58 63 68 69 74 75 75 74 74 75 78 76 76 65 60 55 50 48 45 41 39 40 41 42 45 43
37 42 44 48 52 58 60 60 64 61 57 51 54 56 62 68 69 63 64 67 71 78 77 76 75 75 76 79 77 74 64 58 55 50 45 43 41 41 41 42 40 38 37
38 42 47 53 58 62 65 68 70 64 61 54 54 60 67 75 73 67 65 68 81 80 75 79 76 77 76 72 65 62 57 55 49 41 41 35 29 26 27 27 27 29 34
44 48 52 60 64 67 71 70 66 65 60 53 59 66 69 77 77 72 73 78 87 84 83 80 82 80 73 62 60 52 45 44 42 40 38 34 37 39 37 33 34 33 34
51 55 61 69 67 66 64 64 67 63 57 60 67 68 73 78 84 77 80 85 87 88 88 83 82 72 61 59 55 52 49 47 46 44 42 38 41 39 35 33 38 42 41
56 60 65 66 59 60 63 65 67 65 63 63 65 67 75 81 82 82 82 90 89 84 87 81 71 64 61 59 54 53 51 53 49 47 45 44 43 40 39 32 30 30 35
67 71 60 58 61 62 63 66 62 62 62 65 67 65 72 78 78 81 87 91 86 88 81 73 68 66 65 57 54 55 54 58 52 49 51 50 45 42 34 32 31 39 45

GFSMA_prec_cthk_021.txt.gz
RH
51 51 51 51 48 48 48 49 52 47 40 36 35 29 28 35 35 31 31 35 45 53 68 80 65 53 54 56 48 46 53 51 45 53 51 52 55 57 60 59 59 61 70
55 56 55 52 51 52 54 60 55 48 45 40 39 29 29 29 32 29 29 37 41 41 53 66 71 77 62 55 51 55 58 59 53 53 56 54 53 56 57 59 63 64 65
52 56 56 51 51 52 56 46 42 42 45 41 33 31 29 31 34 32 27 30 38 39 41 52 61 66 78 82 67 70 76 75 63 56 50 48 52 50 58 59 62 61 59
50 54 54 49 45 45 48 46 40 38 40 39 34 28 33 36 36 35 35 34 31 33 41 43 45 56 61 66 81 79 80 79 76 70 72 60 53 53 50 53 58 60 64
55 54 49 44 42 40 36 35 32 26 33 31 28 25 32 31 48 31 34 34 34 34 33 39 44 40 45 56 67 72 75 81 76 77 80 82 75 69 65 61 56 57 57
51 54 42 40 40 32 30 28 29 28 28 28 20 29 34 36 39 36 36 33 32 34 33 33 36 37 43 42 55 65 65 65 74 80 84 84 85 83 79 74 69 66 61
46 49 41 41 34 27 27 25 27 32 26 24 27 29 33 35 39 37 39 34 30 29 28 28 30 32 43 42 45 47 53 54 60 69 78 85 84 82 92 92 92 86 77
41 39 39 37 28 26 32 36 39 45 40 47 38 35 33 33 37 37 37 35 34 30 26 24 26 30 33 38 40 47 39 37 39 43 56 65 69 71 72 80 85 87 88
39 38 38 31 28 32 37 48 52 48 47 53 50 44 39 38 34 36 38 37 35 34 33 32 31 28 26 28 29 28 28 28 29 28 31 35 39 42 42 44 49 59 74
36 36 31 33 38 44 50 54 54 47 49 50 50 50 47 41 40 37 35 35 35 32 33 34 35 36 34 33 32 31 30 28 26 26 26 25 26 27 28 31 34 37 38
36 34 35 42 47 49 53 53 51 43 44 53 58 54 52 55 53 46 38 37 38 38 38 36 39 39 41 40 39 40 37 35 32 33 32 31 28 25 23 22 22 25 28
30 30 39 47 49 47 50 49 46 45 42 44 49 50 50 51 55 57 58 55 54 50 47 46 45 45 46 45 44 44 42 40 40 38 37 34 28 25 23 22 21 22 22
27 34 40 47 47 46 47 45 46 46 47 45 49 51 53 53 51 51 51 51 53 54 56 58 56 55 51 47 45 43 43 42 38 39 38 35 32 30 27 26 25 24 23
28 35 39 46 47 48 47 47 44 47 50 49 48 47 48 51 54 53 52 51 53 56 57 60 62 62 61 56 52 45 42 40 39 37 37 38 41 40 35 34 32 30 27
31 35 41 44 47 47 45 46 44 45 47 48 47 46 48 49 54 58 56 52 52 56 58 60 64 65 66 64 62 61 58 51 42 34 37 42 46 48 45 43 42 40 35
32 34 40 44 49 49 45 44 47 44 46 48 49 48 46 46 47 56 58 56 52 56 60 62 64 65 68 72 70 68 69 67 64 62 54 46 47 49 49 48 47 45 44
32 37 40 43 46 49 46 48 50 53 48 46 48 47 47 46 45 49 59 59 57 56 61 64 65 69 68 72 72 72 71 73 74 74 72 65 57 55 58 58 59 56 52
31 36 41 42 45 48 49 50 50 54 57 54 47 49 48 48 49 47 53 60 60 60 58 65 68 70 73 73 72 74 73 73 76 77 75 74 63 59 57 56 58 57 55
32 35 39 41 43 47 49 49 51 55 59 63 63 58 59 54 54 53 52 59 61 63 57 63 66 72 72 77 77 75 76 78 75 76 77 74 72 63 54 50 50 49 48
31 33 38 41 44 50 51 52 55 58 61 66 70 71 63 58 56 55 54 56 59 61 56 60 66 73 79 81 79 79 78 77 74 73 73 68 63 61 57 52 50 48 45
30 34 37 40 43 47 49 51 53 55 61 67 71 73 69 64 55 54 53 56 63 67 60 64 73 77 82 87 88 87 88 81 74 66 61 58 54 49 47 45 43 41 35
28 30 33 37 38 41 43 45 51 55 59 67 69 73 71 67 59 52 53 55 65 74 68 69 73 76 75 89 89 92 91 82 68 65 61 59 54 51 48 47 43 40 40
28 29 31 34 34 37 39 44 54 62 64 69 72 70 69 66 62 54 55 58 66 74 74 86 79 74 79 91 93 95 87 76 72 67 61 57 53 56 55 49 46 43 38
26 27 30 33 36 37 41 50 61 67 72 68 70 72 67 63 61 56 54 59 64 70 75 81 79 80 88 93 92 90 79 74 70 65 61 57 59 57 57 49 47 43 39
29 28 30 36 38 42 52 62 66 71 71 68 73 70 65 59 54 55 56 63 66 72 76 84 83 83 84 87 81 73 70 72 62 57 56 54 52 50 47 46 45 40 37
32 33 36 39 43 55 64 65 66 73 69 70 70 65 61 54 54 56 59 61 65 70 82 78 76 80 78 76 69 62 59 53 50 46 47 46 46 48 43 42 39 36 34

GFSMA_prec_cthk_024.txt.gz
RH
49 50 51 49 50 53 55 55 55 48 45 40 35 31 26 35 33 31 32 40 51 62 77 81 59 50 50 52 49 42 46 47 48 55 53 60 55 54 58 58 59 63 69
54 56 53 50 56 56 57 51 48 44 46 41 40 33 28 32 33 28 31 37 43 49 63 72 79 70 60 64 52 53 57 57 47 50 54 57 61 62 56 56 62 65 68
54 54 56 52 48 47 48 49 46 38 37 38 40 32 28 36 33 28 26 37 42 44 46 59 64 70 77 67 70 68 76 75 64 59 52 51 51 55 56 59 58 60 61
54 54 55 49 44 42 41 37 37 35 36 37 34 32 33 33 35 32 33 29 33 39 44 45 52 57 60 68 77 70 75 77 79 71 64 62 52 53 55 53 58 61 63
54 62 52 45 42 37 33 35 34 33 32 34 33 30 32 32 43 33 33 33 33 33 35 43 46 45 51 56 64 74 79 73 79 72 78 79 74 66 60 57 56 57 59
55 55 48 41 40 33 32 30 30 33 32 32 27 24 32 35 35 34 33 31 32 33 32 34 41 41 45 47 52 61 66 70 74 76 78 77 81 80 79 78 74 68 66
46 47 45 41 37 33 31 34 39 46 50 37 34 32 33 35 38 37 34 32 28 26 26 26 28 31 40 44 46 48 51 55 58 64 73 82 89 87 92 88 90 94 83
41 42 41 40 34 36 37 46 51 50 47 45 44 40 37 34 34 36 36 33 31 29 26 23 26 31 33 39 39 42 41 39 39 43 48 61 68 74 81 81 87 91 93
41 37 35 33 33 39 48 51 52 49 42 46 48 45 43 38 39 38 37 35 34 32 32 33 31 29 27 27 28 29 29 30 31 31 30 31 35 43 49 53 53 54 60
35 36 32 33 37 49 55 51 49 50 44 48 52 52 52 50 44 42 40 39 38 36 33 32 35 35 35 35 35 33 32 29 28 28 28 28 27 26 25 26 28 30 33
32 32 29 34 45 53 53 49 45 48 45 47 49 48 52 54 57 58 56 50 45 47 45 45 44 46 46 43 42 41 39 37 35 35 35 32 29 27 26 25 23 23 23
32 30 32 40 49 54 50 47 46 48 46 45 50 52 51 52 52 53 55 54 54 53 53 52 51 52 53 52 49 48 43 43 42 42 40 37 33 30 26 24 23 23 23
30 28 36 42 47 51 48 45 45 46 46 45 46 48 48 48 52 51 49 48 50 52 54 56 58 59 59 59 56 53 49 47 42 41 39 36 36 33 32 33 32 29 26
28 32 37 42 46 51 50 44 43 45 46 47 46 48 48 48 48 51 52 52 49 51 54 58 59 60 62 63 63 60 57 55 50 43 36 35 39 42 42 42 38 36 34
26 31 39 43 44 49 50 48 46 48 46 47 47 46 46 47 47 48 52 54 51 49 51 57 64 65 64 64 65 67 66 67 67 61 57 51 45 40 45 46 46 43 39
27 29 38 41 43 47 50 50 47 47 47 46 48 47 46 47 48 49 49 55 55 54 51 55 59 61 64 66 70 76 75 73 71 73 74 74 72 67 56 51 55 55 52
28 30 36 40 41 46 49 49 47 48 48 44 46 49 51 53 51 51 49 51 58 57 56 56 58 63 66 70 72 75 75 76 76 76 77 78 76 75 73 66 57 57 59
29 31 35 40 41 43 47 48 49 51 54 56 56 56 55 56 56 51 49 47 51 57 59 60 56 62 67 70 74 75 76 76 76 77 77 74 74 76 74 71 63 58 54
29 29 33 38 38 41 46 47 49 48 53 55 61 67 66 57 62 57 51 47 46 50 57 60 59 59 65 71 74 76 79 81 79 78 75 72 70 67 64 58 56 57 57
28 30 33 37 38 43 46 46 46 49 55 60 64 70 71 67 65 56 53 52 48 48 54 57 62 56 65 70 73 72 73 84 81 86 85 76 70 61 54 51 50 48 47
25 26 32 36 38 39 42 46 47 49 56 58 62 68 72 76 72 61 50 53 53 51 52 56 64 58 63 72 72 67 66 74 83 87 82 75 67 60 57 55 54 52 48
27 27 32 34 36 37 42 47 48 47 52 58 64 68 71 75 71 64 57 50 50 53 53 55 63 66 66 78 74 71 74 82 86 85 76 70 67 64 62 60 57 56 52
24 25 30 33 35 40 44 46 47 44 47 54 63 67 73 71 65 68 62 50 45 52 55 58 65 73 72 77 72 74 83 89 89 81 71 65 66 61 57 56 57 58 55
23 23 27 31 35 38 41 43 42 41 45 54 61 68 70 67 66 67 61 52 47 53 57 57 68 71 69 74 72 74 75 76 68 65 61 53 49 47 47 46 47 48 45
31 24 25 29 32 34 35 38 40 41 46 52 63 66 67 65 68 67 58 51 50 54 63 65 67 67 73 68 66 69 67 63 55 45 40 40 38 40 42 41 42 41 39
37 33 29 29 31 31 32 34 40 43 47 52 56 64 62 61 63 60 52 47 51 58 61 60 59 63 66 63 62 56 47 41 37 33 36 38 39 40 38 41 41 40 36

GFSMA_prec_cthk_030.txt.gz
RH
51 55 55 57 57 57 59 61 60 57 50 48 41 41 43 40 43 47 42 45 61 78 78 60 49 44 47 55 48 41 47 50 48 48 53 57 60 52 55 56 57 59 63
49 55 55 55 54 52 52 55 55 55 37 40 44 40 41 44 37 38 47 47 50 60 72 73 67 59 53 49 50 51 55 60 56 46 57 59 56 63 60 56 57 61 65
51 50 63 53 49 50 52 45 54 48 50 37 35 37 42 40 41 36 47 52 47 45 52 64 69 70 61 56 59 56 62 64 63 60 51 51 54 58 60 59 60 59 63
49 50 66 52 48 45 46 47 47 46 41 36 36 36 41 43 40 40 45 47 48 52 42 45 53 56 59 63 61 67 65 71 70 76 72 62 62 60 57 65 62 60 63
48 50 54 52 42 38 44 42 43 42 42 42 44 42 37 41 38 42 38 38 41 45 50 40 39 44 48 51 59 67 68 68 68 70 75 73 76 78 75 69 65 64 65
46 52 54 54 43 38 43 54 54 50 50 45 43 36 42 41 43 43 40 42 41 39 42 43 42 45 40 40 44 51 55 60 64 67 68 66 70 73 77 82 82 77 77
45 50 51 54 40 38 58 55 52 49 56 43 44 43 42 39 38 42 42 42 38 43 37 37 38 40 39 33 36 39 44 47 50 54 60 63 67 70 79 85 85 83 86
42 44 47 56 45 42 52 53 51 57 48 40 48 52 49 44 41 42 41 37 34 36 30 27 30 32 34 49 38 33 34 34 34 38 41 44 48 53 61 68 73 79 82
36 37 47 44 40 45 59 50 46 45 50 44 46 57 53 50 46 39 39 42 37 37 35 33 34 32 32 33 29 27 25 25 26 28 30 31 30 29 29 30 35 41 46
35 36 40 37 32 48 51 53 47 48 49 48 45 45 51 55 59 59 52 50 46 44 41 42 43 41 38 43 37 35 32 31 29 30 29 28 28 28 27 26 24 22 23
34 35 34 34 34 45 46 46 45 44 46 48 50 50 47 48 47 52 55 55 52 50 50 47 48 49 47 49 51 48 44 41 41 40 38 36 33 31 31 30 29 27 26
36 32 32 30 35 44 44 47 44 42 41 41 46 47 47 48 52 53 52 52 54 57 52 51 52 55 58 60 59 58 54 50 48 44 38 35 32 32 34 34 33 32 30
39 35 27 26 36 40 44 46 44 42 40 40 38 44 47 47 48 48 50 52 53 52 48 50 52 51 54 57 60 58 57 58 58 56 54 51 47 46 44 39 36 34 32
38 36 30 24 33 37 41 43 45 43 41 38 38 39 46 49 50 52 51 55 56 53 52 45 50 53 52 53 56 53 57 57 57 59 63 65 64 66 64 59 53 47 43
37 33 29 23 30 36 38 41 44 42 41 39 40 41 44 49 49 50 53 51 50 49 50 50 48 50 52 54 55 53 52 57 57 61 63 61 63 66 68 70 70 68 66
30 34 28 27 31 36 37 40 43 42 41 41 42 43 43 50 49 53 55 52 47 44 45 49 50 48 47 51 52 52 57 55 58 59 60 63 65 67 72 75 72 71 72
28 32 29 25 30 37 36 38 42 44 41 41 41 43 44 47 50 52 52 51 47 46 45 48 47 45 40 42 50 48 52 56 63 63 61 63 67 71 73 77 76 69 62
27 27 29 27 28 36 38 36 41 44 41 41 41 41 42 45 47 51 50 50 49 52 48 47 48 46 43 45 41 43 51 58 60 63 63 61 58 62 70 75 78 71 62
28 26 26 26 25 30 36 34 37 40 40 39 40 41 43 47 49 53 51 53 54 53 52 50 48 47 45 48 50 48 51 53 57 58 56 56 57 62 69 75 70 67 66
34 28 25 23 23 25 33 33 33 35 38 38 39 42 44 50 52 55 56 54 54 57 58 55 52 46 47 47 49 53 59 55 61 59 60 57 56 58 65 67 64 55 62
39 39 32 24 22 25 27 29 29 31 35 37 38 40 42 47 51 55 61 63 65 65 62 63 60 50 48 51 53 54 51 55 63 57 62 61 60 57 55 52 48 42 39
40 42 40 34 24 21 23 26 28 29 32 33 35 38 43 45 48 51 59 65 65 70 69 66 66 59 54 49 54 54 53 61 60 69 60 60 60 51 48 45 43 38 32
41 40 41 40 31 22 20 19 24 27 28 32 35 40 42 44 45 48 56 63 65 69 70 67 67 62 61 57 55 49 53 58 63 69 52 54 52 43 38 37 31 29 28
40 42 42 42 38 29 24 21 23 30 30 32 34 37 40 42 44 48 52 58 66 69 68 69 69 65 63 59 51 46 51 52 58 58 52 45 41 35 30 28 32 28 27
54 53 54 56 47 36 32 26 24 28 29 31 33 36 39 41 45 46 52 58 66 71 68 75 75 67 61 55 51 50 51 54 60 53 43 36 30 32 31 28 31 28 24
54 55 56 55 55 47 40 39 31 30 34 35 36 38 39 41 45 47 52 62 66 72 71 73 74 62 58 54 54 48 50 51 51 43 35 26 25 28 31 29 26 25 22

GFSMA_prec_cthk_033.txt.gz
RH
49 58 58 67 61 58 50 58 53 48 39 39 40 46 43 39 41 51 41 45 65 74 66 54 45 43 49 52 46 46 46 54 55 53 50 57 59 56 55 55 58 59 61
49 64 58 59 55 55 69 57 52 52 52 37 37 35 43 43 41 47 45 36 47 63 72 67 56 52 47 48 52 48 50 53 52 53 54 58 59 59 62 62 55 56 61
47 67 64 55 57 57 50 45 58 54 43 47 34 34 43 44 39 49 52 52 47 44 50 61 65 63 53 50 55 56 54 58 61 60 57 50 52 55 56 62 61 60 60
47 59 62 53 62 48 48 59 46 44 51 42 42 41 40 37 40 36 47 45 47 52 42 40 49 54 59 61 58 61 58 63 68 67 77 71 63 62 61 64 64 63 58
45 46 60 74 44 42 48 48 57 57 51 50 50 44 41 36 45 45 42 44 43 52 54 44 39 43 47 50 53 58 58 58 60 63 64 64 63 65 68 72 74 72 67
42 44 58 50 42 47 56 64 53 53 55 48 53 42 46 43 44 43 40 48 44 38 45 41 43 51 46 41 42 46 50 54 58 62 67 68 64 63 62 68 72 78 79
42 47 54 54 41 42 52 53 52 56 64 46 49 48 47 42 41 40 47 50 40 52 56 36 48 43 45 35 32 35 38 42 46 50 54 60 63 66 66 69 75 77 81
41 44 57 56 45 65 53 48 47 63 48 44 54 49 48 44 43 53 41 39 40 39 35 33 37 37 51 46 36 31 31 33 35 35 37 38 40 42 45 50 56 62 64
39 41 50 45 44 41 66 51 43 49 57 42 50 61 58 59 50 46 42 48 37 42 36 36 38 35 42 36 30 28 26 26 26 26 28 30 29 29 29 29 29 28 28
36 38 42 41 37 42 60 53 46 51 45 48 42 49 54 56 62 62 56 52 48 48 45 54 48 44 42 47 42 39 37 36 37 37 35 33 31 29 27 26 26 26 24
36 37 38 39 35 37 49 52 49 41 46 51 51 47 45 47 53 57 57 56 53 53 56 44 58 58 52 55 53 50 48 45 46 43 41 39 34 31 32 32 30 29 28
38 34 36 34 38 37 48 46 46 43 42 45 47 48 51 52 54 53 54 54 55 57 55 55 50 52 57 58 58 57 55 53 52 51 47 46 45 45 47 45 42 37 32
37 38 32 38 33 34 45 42 44 41 36 40 37 45 46 52 54 54 53 53 52 53 54 50 51 51 54 55 58 58 55 52 52 53 54 58 60 61 63 63 63 63 58
36 39 34 33 29 34 38 40 44 41 41 36 37 38 50 52 53 53 50 52 54 50 46 43 47 47 49 51 52 51 51 50 53 54 55 55 57 60 60 58 60 61 64
35 38 36 29 28 28 38 38 39 42 41 39 40 38 42 52 50 52 52 51 50 52 52 48 45 44 45 46 46 45 45 48 49 51 54 55 58 58 58 60 62 65 64
27 37 31 30 26 25 33 38 38 41 40 42 42 43 41 49 50 51 51 51 52 49 50 52 50 45 42 43 44 41 46 47 45 49 50 52 55 57 59 58 63 70 76
25 25 28 28 25 23 28 36 36 42 39 39 41 42 42 44 47 51 49 50 53 52 50 51 54 50 42 36 39 39 42 46 48 50 52 52 51 53 56 58 62 69 71
27 27 28 28 29 25 27 34 37 36 40 41 41 39 39 40 41 46 51 49 52 54 54 53 55 57 48 43 36 38 40 49 53 52 52 52 51 54 53 52 53 60 56
26 26 26 27 26 25 24 28 34 31 36 39 38 38 37 39 40 41 44 50 50 49 56 56 56 56 56 50 46 43 43 49 51 51 53 53 51 52 48 50 51 45 43
26 26 27 26 24 21 23 21 26 30 30 34 36 36 37 39 39 38 43 47 51 53 56 64 66 62 61 58 57 56 55 54 52 49 56 58 58 52 47 46 42 38 37
28 34 37 37 33 27 22 20 20 25 26 28 33 35 38 40 41 41 43 46 50 55 59 62 69 67 65 61 60 64 63 57 53 50 55 56 59 51 45 42 35 37 29
32 35 36 38 39 37 31 23 21 22 26 29 31 35 35 38 40 40 40 46 50 54 60 66 67 69 66 63 67 68 69 63 62 60 55 57 53 43 35 42 37 33 32
35 34 36 39 41 43 39 32 23 24 23 25 29 31 33 37 38 41 40 43 46 49 54 60 67 72 68 67 67 69 62 58 56 57 50 53 48 41 35 32 27 24 25
45 42 40 41 41 41 43 38 32 27 25 24 25 27 31 34 35 37 40 42 44 47 52 60 65 70 69 70 64 65 55 52 55 55 53 45 41 33 23 22 26 25 23
48 45 46 47 46 43 45 45 39 35 30 26 25 31 33 33 33 33 38 43 44 48 51 54 67 72 68 72 65 64 63 53 55 52 47 42 38 24 22 23 25 23 21
45 50 50 47 44 42 44 46 47 40 36 36 30 31 33 33 34 34 38 45 46 47 54 51 60 72 72 71 66 61 62 59 55 50 47 41 36 23 19 23 23 22 21